GPS是电子欢愉喜爱者很是热衷的一个话题,GPS在民用,军用,帆海航天范畴都有遍及的使用。很多登山户外活动欢愉喜爱者也都配备有GPS设备,用于野外导航。GPS模块的代价越来越布衣化,让越来越多的产物嵌入了GPS模块,电子欢愉喜爱者进修研究GPS模块也不再是豪侈的事。咱们配备的GPS模块是GS-89m-J 该模块是由韩国生产,采用的MTK芯片组,在功耗,代价,体积上都有相当的劣势,采用的是30PIN贴片封装。注:发货时配的模块均为最新版本,可能与照片上的模块样子有所不合,特此申明,由于不合的GPS模块批次,概况标签可能印刷有所不合。笔者文章登载于2010年7月《无线电》杂志“玲珑合用的51单片机GPS斥地板”一文,文章中咱们引见51单片机GPS斥地板基来历根底理与使用,大师也能够翻阅查看。

gps斥地板

  51单片机GPS斥地板,能够经由液晶屏及时显示GPS数据消息:卫星时间、经度、纬度、海拔高度等相关消息,斥地板供给了12864液晶和TFT彩屏接口。斥地板采用贴片元件设想工艺,供电能够使用外接电源或USB线缆供电,便当笔记本用户,以便到室外调试,用笔记本或上网本插个USB线就能够供电了,同时,斥地板供给了RS232外部串行通信接口,能够经由PC机对斥地板芯片进行在线烧写,同时,板上设有通信模式切换跳线,能够设置成3种串口通信模式,别离为:PC机--GPS模块;PC机--51单片机;51单片机--GPS模块,即三者之间两两通信。 对于斥地板使用的元件全数为贴片优良器件,电解电容使用钽电容,代价高贵,机能不变,质量靠得住。
  以下是咱们在2010年7月《无线电》杂志登载了咱们GPS斥地板的文章,有乐趣的伴侣也能够间接参阅《无线电》杂志,新华书店均有出售。
无线电杂志

无线电

产物标配清单:

    GPS斥地板:1块
    串口线:1条
    USB供电线:1条
    外置GPS天线:1条
    TFT彩屏:1块
    配套光盘:1份

  单片机GPS斥地板硬件道理:


  GPS斥地板完整的电路图共由7部门单元电路构成,别离是稳压电路,单片机最小系统电路,显示电路,MAX232电平转换电路,AT89S系列单片机ISP下载口电路,通信跳线设置电路,GPS模块外围电路。稳压电路给斥地板供给5V VCC电源电压;由51单片机芯片,单片机振荡电路和单片机复位电路构成为单片机最小系统电路;12864液晶接口和TFT彩屏接口构成为显示电路;MAX232芯片及外转电路构成为RS232-TTL电平转换电路,它也是咱们的串口ISP下载电路,多么咱们就能够经由串口给板载的STC89C51芯片完成ISP在线下载法式,无需使用编程器,很是便当。J5为10芯尺度ISP下载口;J6—J11为串口通信模式设置跳线;U4为GPS模块,它的外转电路很简单,由几个电阻、电容、电池、发光管构成。

  GPS模组能够间接采用电平转换电路max232,将模块的串口和PC机的串口连接,用PC机串口调试对象和GPS模块调试软件监控模块输出的数据,留意:模块的默认波特率为4800,PC机串口波特率必需设置成4800。若是没有接GPS天线或收不到卫星信号。模组上的LED灯不断常亮,若是收到无效的卫星信号LED起头明灭。GPS数据格局支撑 NMEA0183 V 3.01 数据和谈。

  接上去,咱们着重引见一下斥地板的GPS模块电路与数据解析道理,关于其它电路的道理,相信单片机欢愉喜爱者都曾经有所领会了。这里不再赘述。U4为GPS模块,4脚和5脚别离为串口领受和发送脚,GPS卫星领受上去的数据便是经由这两个脚输出的,咱们到时候也是从这两个脚来解析数据,获得地舆消息。这两个脚能够与单片机的领受和发送脚相连,也能够经由MAX232电平转换后和PC机的串口相连。发光管D3为GPS模块的工作唆使灯,通电常亮,领遭到卫星起头明灭,咱们经由LED灯能够来判断GPS模块的当前工作情况。GPS模块的第22脚颠末电阻R6与单片机的P1.0口相连,这是外部复位输入,模块内部有复位电路,供给复位信号。21脚为外置电池输入端,由3V的扭扣电池供电,由于GPS模块从卫星上收到的数据量很大,它要进行大量算计工作,因而,一些数据要进行保留,所以咱们得给模块供给电池电源。1脚为VCC电压,电源电压为5V,和单片机供电电压一样。17脚为外置GPS天线的输入口,斥地板配的是3米的外置GPS天线,能够让使用者在室内进行测验考试,把天线拖在窗外即可领受。

GPS斥地板这是PCB板顶层图
gps斥地板这是PCB板底层图

gps斥地板这是丝印层

  这是咱们的“51单片机GPS斥地板”的操作演示视频录像,大师能够点击下载视频文件进行傍观,视频中咱们引见了进修板的硬件和软件材料的环境以及初度使用的使用实例。留意,为了达到最好的显示成果,请全屏播放进行傍观

-->>下载高质量视频文件 /gps/gps.rar

点击上面窗口进行在线播放,双击进行全屏傍观

gps斥地板

下面是咱们进行实测的部门照片:

gps斥地板
这是咱们的GPS斥地板插上12864液晶显示屏的样子,板子右下角插上GPS外置天线。

gps斥地板
此刻咱们经由上网本的USB供词给给板子供电。

gps斥地板
打开电源开关,液晶屏显示开机提示消息:GPS 领受调试法式

gps斥地板
之后,出现授时、海拔字样,这时候GPS数据又一次没有从卫星上获取,GPS开机的过程是需要必然时间的,一般需要几十秒的样子,具体看信号环境。

gps斥地板
过一段时间后,屏幕出现GPS领受的卫星数据,刚起头数据不不变,是会跳变的,过一会会不变些。

gps斥地板

gps斥地板

gps斥地板
下面咱们用TFT彩屏进行GPS卫星数据的领受,拔掉12864液晶,插上TFT彩屏。

gps斥地板
TFT彩屏显示GPS卫星数据,现实显示成果很标致,图中所示的数字有些处所看不到,是由于彩屏显示的刷屏道理,以及相机的快门速度婚配问题。

gps斥地板
时间值是在变动的,现实显示成果,人眼看上去显示成果很标致。

gps斥地板

gps斥地板

gps斥地板

格局 NMEA0183 V3.01: GPGGA(1 次/1 秒)、GPGSA(1 次/5 秒)、
GPGSV(1 次/5 秒)、GPRMC(1 次/1 秒)、GPVTG(1 次/1 秒)、
(GLL,或选用 MTK NMEA 指令格局)。

下面是调试模组用串口监控到的数据:

无卫星情况:

$GPGGA,000355.026,8960.0000,N,00000.0000,E,0,0,,137.0,M,13.0,M,,*44
$GPGSA,A,1,,,,,,,,,,,,,,,*1E
$GPGSV,1,1,00*79
$GPRMC,000355.026,V,8960.0000,N,00000.0000,E,0.00,0.00,060180,,,N*79
$GPVTG,0.00,T,,M,0.00,N,0.00,K,N*32
$GPGGA,000356.026,8960.0000,N,00000.0000,E,0,0,,137.0,M,13.0,M,,*47
$GPRMC,000356.026,V,8960.0000,N,00000.0000,E,0.00,0.00,060180,,,N*7A
$GPVTG,0.00,T,,M,0.00,N,0.00,K,N*32
$GPGGA,000357.026,8960.0000,N,00000.0000,E,0,0,,137.0,M,13.0,M,,*46
$GPRMC,000357.026,V,8960.0000,N,00000.0000,E,0.00,0.00,060180,,,N*7B
$GPVTG,0.00,T,,M,0.00,N,0.00,K,N*32
$GPGGA,000358.026,8960.0000,N,00000.0000,E,0,0,,137.0,M,13.0,M,,*49
$GPRMC,000358.026,V,8960.0000,N,00000.0000,E,0.00,0.00,060180,,,N*74
$GPVTG,0.00,T,,M,0.00,N,0.00,K,N*32
$GPGGA,000359.026,8960.0000,N,00000.0000,E,0,0,,137.0,M,13.0,M,,*48
$GPRMC,000359.026,V,8960.0000,N,00000.0000,E,0.00,0.00,060180,,,N*75
$GPVTG,0.00,T,,M,0.00,N,0.00,K,N*32
$GPGGA,000400.026,8960.0000,N,00000.0000,E,0,0,,137.0,M,13.0,M,,*43
$GPGSA,A,1,,,,,,,,,,,,,,,*1E
$GPGSV,1,1,00*79
$GPRMC,000400.026,V,8960.0000,N,00000.0000,E,0.00,0.00,060180,,,N*7E
$GPVTG,0.00,T,,M,0.00,N,0.00,K,N*32
$GPGGA,000401.026,8960.0000,N,00000.0000,E,0,0,,137.0,M,13.0,M,,*42
$GPRMC,000401.026,V,8960.0000,N,00000.0000,E,0.00,0.00,060180,,,N*7F
$GPVTG,0.00,T,,M,0.00,N,0.00,K,N*32
$GPGGA,000402.026,8960.0000,N,00000.0000,E,0,0,,137.0,M,13.0,M,,*41
$GPRMC,000402.026,V,8960.0000,N,00000.0000,E,0.00,0.00,060180,,,N*7C
$GPVTG,0.00,T,,M,0.00,N,0.00,K,N*32
$GPGGA,000403.026,8960.0000,N,00000.0000,E,0,0,,137.0,M,13.0,M,,*40
$GPRMC,000403.026,V,8960.0000,N,00000.0000,E,0.00,0.00,060180,,,N*7D
$GPVTG,0.00,T,,M,0.00,N,0.00,K,N*32
$GPGGA,000404.026,8960.0000,N,00000.0000,E,0,0,,137.0,M,13.0,M,,*47
$GPRMC,000404.026,V,8960.0000,N,00000.0000,E,0.00,0.00,060180,,,N*7A
$GPVTG,0.00,T,,M,0.00,N,0.00,K,N*32
$GPGGA,000405.026,8960.0000,N,00000.0000,E,0,0,,137.0,M,13.0,M,,*46
$GPGSA,A,1,,,,,,,,,,,,,,,*1E

有卫星情况:

$GPGGA,090113.000,3958.2847,N,11616.6454,E,1,8,1.00,67.6,M,-6.7,M,,*78
$GPRMC,090113.000,A,3958.2847,N,11616.6454,E,0.00,0.00,080110,,,A*60
$GPVTG,0.00,T,,M,0.00,N,0.00,K,A*3D
$GPGGA,090114.000,3958.2847,N,11616.6456,E,1,8,1.00,67.7,M,-6.7,M,,*7C
$GPRMC,090114.000,A,3958.2847,N,11616.6456,E,0.00,0.00,080110,,,A*65
$GPVTG,0.00,T,,M,0.00,N,0.00,K,A*3D
$GPGGA,090115.000,3958.2846,N,11616.6456,E,1,8,1.00,67.7,M,-6.7,M,,*7C
$GPRMC,090115.000,A,3958.2846,N,11616.6456,E,0.00,0.00,080110,,,A*65
$GPVTG,0.00,T,,M,0.00,N,0.00,K,A*3D
$GPGGA,090116.000,3958.2846,N,11616.6456,E,1,8,1.00,67.8,M,-6.7,M,,*70
$GPRMC,090116.000,A,3958.2846,N,11616.6456,E,0.00,0.00,080110,,,A*66
$GPVTG,0.00,T,,M,0.00,N,0.00,K,A*3D
$GPGGA,090117.000,3958.2845,N,11616.6457,E,1,8,1.00,67.8,M,-6.7,M,,*73
$GPGSA,A,3,29,15,10,18,09,21,24,27,,,,,1.28,1.00,0.79*08
$GPGSV,3,1,10,24,78,302,38,15,77,207,42,29,36,238,48,10,33,073,24*76
$GPGSV,3,2,10,21,29,310,39,08,22,054,,18,15,276,42,27,14,167,36*7D
$GPGSV,3,3,10,09,05,175,35,40,,,*45
$GPRMC,090117.000,A,3958.2845,N,11616.6457,E,0.00,0.00,080110,,,A*65
$GPVTG,0.00,T,,M,0.00,N,0.00,K,A*3D
$GPGGA,090118.000,3958.2846,N,11616.6457,E,1,8,1.00,67.8,M,-6.7,M,,*7F
$GPRMC,090118.000,A,3958.2846,N,11616.6457,E,0.00,0.00,080110,,,A*69
$GPVTG,0.00,T,,M,0.00,N,0.00,K,A*3D
$GPGGA,090119.000,3958.2846,N,11616.6458,E,1,9,0.85,67.8,M,-6.7,M,,*7C
$GPRMC,090119.000,A,3958.2846,N,11616.6458,E,0.00,0.00,080110,,,A*67
$GPVTG,0.00,T,,M,0.00,N,0.00,K,A*3D
$GPGGA,090120.000,3958.2847,N,11616.6459,E,1,9,0.85,67.8,M,-6.7,M,,*76
$GPRMC,090120.000,A,3958.2847,N,11616.6459,E,0.00,0.00,080110,,,A*6D
$GPVTG,0.00,T,,M,0.00,N,0.00,K,A*3D
$GPGGA,090121.000,3958.2847,N,11616.6460,E,1,9,0.85,67.8,M,-6.7,M,,*7D
$GPRMC,090121.000,A,3958.2847,N,11616.6460,E,0.00,0.00,080110,,,A*66
$GPVTG,0.00,T,,M,0.00,N,0.00,K,A*3D
$GPGGA,090122.000,3958.2847,N,11616.6461,E,1,9,0.85,67.8,M,-6.7,M,,*7F
$GPGSA,A,3,29,15,10,18,09,21,24,08,27,,,,1.14,0.85,0.77*0D
$GPGSV,3,1,10,24,78,302,38,15,77,207,42,29,36,238,48,10,33,073,22*70
$GPGSV,3,2,10,21,29,310,39,08,22,054,21,18,15,276,42,27,14,167,36*7E
$GPGSV,3,3,10,09,05,175,35,43,,,*46
$GPRMC,090122.000,A,3958.2847,N,11616.6461,E,0.00,0.00,080110,,,A*64
$GPVTG,0.00,T,,M,0.00,N,0.00,K,A*3D
$GPGGA,090123.000,3958.2848,N,11616.6462,E,1,9,0.85,67.8,M,-6.7,M,,*72
$GPRMC,090123.000,A,3958.2848,N,11616.6462,E,0.00,0.00,080110,,,A*69
$GPVTG,0.00,T,,M,0.00,N,0.00,K,A*3D

GPS数据格局定义为(以数据手册为准):

GPS 数据格局
GPRMC(建议使用最小GPS数据格局)

$GPRMC,<1>,<2>,<3>,<4>,<5>,<6>,<7>,<8>,<9>,<10>,<11><CR><LF> 
1) 尺度定位时间(UTC time)格局:不时分分秒秒.秒秒秒(hhmmss.sss)。 
2) 定位情况,A = 数据可用,V = 数据不成用。 
3) 纬度,格局:度度分分.分分分分(ddmm.mmmm)。 
4) 纬度区分,北半球(N)或南半球(S)。 
5) 经度,格局:度度分分.分分分分。
6) 经度区分,东(E)半球或西(W)半球。 
7) 相对位移速度, 0.0 至 1851.8 knots 
8) 相对位移标的目的,000.0 至 359.9度。现实值。 
9) 日期,格局:日日月月年年(ddmmyy)。 
10) 磁极变量,000.0 至180.0。 
11) 度数。 
12) Checksum.(反省位)

GPGSV(所示卫星格局)

$GPGSV, <1>,<2>,<3>,<4>,<5>,<6>,<7>,<4>,<5>,<6>,<7>,<8><CR><LF> 
1) 天空中收到讯号的卫星总数。 
2) 定位的卫星总数。 
3) 天空中的卫星总数,00 至 12。
4) 卫星编号, 01 至 32。 
5) 卫星仰角, OO 至 90 度。 
6) 卫星方位角, OOO 至 359 度。现实值。 
7) 讯号噪声比(C/No), 00 至 99 dB;无表未领遭到讯号。 
8) Checksum.(反省位).

第<4>,<5>,<6>,<7>项个体卫星会反复出现,每行最多有四颗卫星。其余卫星消息会于次一行出现,若未使用,这些字段会空白。

GPGSA(GPS精度指针及使用卫星格局) 
$GPGSA,<1>,<2>,<3>,<3>,,,,,<3>,<3>,<3>,<4>,<5>,<6>,<7><CR><LF>

1)模式 2:M = 手动, A = 主动。 
2)模式 1:定位型式 1 = 不决位, 2 = 二维定位, 3 = 三维定位。 
3) PRN 数字:01 至 32 表天空使用中的卫星编号,最多可领受12颗卫星消息。
4) PDOP-位置精度稀释 0.5 至 99.9. 
5) HDOP-程度精度稀释 0.5 to 99.9. 
6) VDOP-垂直精度稀释 0.5 to 99.9. 
7) Checksum.(反省位).

GPS固定命据输出语句($GPGGA) 
这是一帧GPS定位的次要数据,也是使用最广的数据。为了便于理解,下面举例申明$GPGGA语句各部门的含义。例1是用GN-77N和笔者斥地的软硬件接口,在笔者地址地领遭到的$GPGGA语句的内容。
例1:$GPGGA,050901,3931.4449,N,11643.5123,E,1,07,1.4,76.2,M,-7.0,M,,*65 
其尺度格局为:$GPGGA,(1),(2),(3),(4),(5),(6),(7),(8),(9),M,(10),M,(11),(12)*hh(CR)(LF) 
各部门所对应的含义为: 
(1)定位UTC时间:05时09分01秒 
(2)纬度(格局ddmm.mmmm:即dd度,mm.mmmm分); 
(3)N/S(北纬或南纬):北纬39度31.4449分; 
(4)经度(格局dddmm.mmmm:即ddd度,mm.mmmm分); 
(5)E/W(东经或西经):东经116度43.5123分; 
(6)质量因子(0=没有定位,1=及时GPS,2=差分GPS):1=及时GPS; 
(7)可使用的卫星数(0~8):可使用的卫星数=07; 
(8)程度精度因子(1.0~99.9);程度精度因子=1.4; 
(9)天线高程(海平面,-9999.9~99999.9,单元:m);天线高程=76.2m); 
(10)大地椭球面相对海平面的高度(-999.9~9999.9,单元:m):-7.0m; 
(11)差分GPS数据春秋,及时GPS时无:无; 
(12)差分基准站号(0000~1023),及时GPS时无:无; 
*总和校验域; 
hh 总和校验数:65 
(CR)(LF)回车,换行。

b.可视卫星情况输出语句($GPGSV) 
例2:$GPGSV,2,1,08,06,33,240,45,10,36,074,47,16,21,078,44,17,36,313,42*78 
尺度格局: $GPGSV,(1),(2),(3),(4),(5),(6),(7),…(4),(5),(6),(7)*hh(CR)(LF) 
各部门含义为: 
(1)总的GSV语句电文数;2;
(2)当前GSV语句号:1; 
(3)可视卫星总数:08; 
(4)卫星号:06; 
(5)仰角(00~90度):33度; 
(6)方位角(000~359度):240度; 
(7)信噪比(00~99dB):45dB(后面顺次为第10,16,17号卫星的消息); 
*总和校验域; 
hh 总和校验数:78; 
(CR)(LF)回车,换行。 
注:每条语句最多包罗四颗卫星的消息,每颗卫星的消息有四个数据项,即: 
(4)-卫星号,(5)-仰角,(6)-方位角,(7)-信噪比。

  刚才咱们看到的是单片机与GPS模块进行通信,由单片机进行GPS数据和谈解析并经由显示屏显示的实例。此刻,咱们再来一路看一下若何用电脑PC来查看GPS数据,从而实此刻电脑端及时观测GPS数据。下图是咱们打开GPS上位机软件后的界面,咱们将GPS斥地板经由串口线与PC机的RS232串口相连,留意板上的串口通信跳线要设置成PC—GPS模式。然后在软件中设置好COM口通信序号就能够了,对于没有RS232串口的台式机或笔记本电脑,咱们能够使用USB转RS232的转接线来进行测验考试。从软件界面中,咱们能够看到窗体中已将GPS数据各个字段内容进行了直观地显示,如时间、日期、经度、纬度、信号质量等等。软件界面右侧将会显示咱们已连接的卫星数据和信号强度。 

gps

  当咱们打开GPS斥地板的电源后,颠末一段时间,咱们就能够收到卫星数据了,如下图所示,PC机收到GPS模块发出的原始数据将显示在“Received Data”窗口中,同时,软件将主动解析这些复杂的数据,进行直观、抽象的图形化显示。咱们能够看到,刚有信号时,软件窗口中各字段显示框中曾经及时显示了GPS数据的的消息了。 

gps

  看到这里,相信大师曾经能够大白咱们是若何把持GPS学问与单片机技术相连系来完成GPS定位了,读者伴侣也不妨本人出手,编写一个GPS使用的相关法式,按照本人的需要做一个小测验考试。当然,读者伴侣又一次能够经由网站或电子@一下与咱们一路交换进修。

GPS产物相关配件:

gps模块
MTK芯片 32通道 高领受和跟踪活络度, 30pin脚,贴片编制, 25.4*25.4 尺寸 售价:120元/个

  GStar-89m-J是一个高效能、低耗电的智能型卫星领受模块或称做卫星领受引擎,它采用联发科技公司所设想的32通道定位领受芯片,是一个完整的卫星定位领受器具有全方斡忠淮桅能,能满足专业定位的严酷要求与小我消费需求。

产物申明

名称

次要参数

芯片组

MTK 3329

活络度

-164DB

功耗 

搜刮时: 35mA

定位后: 25 mA

外观尺寸

25.4(长) x25.4(宽) x3(高) mm

分量

7克

操作溫度

摄氏 –40°C ---- +85°C

储存溫度

摄氏 –40°C ---- +125°C

工作电压

3.3 –5.5V(VDC)

卫星通道

32

定位材料更新

一秒

定位时间(平均值)

热启动:1 秒

暖启动:33 秒

冷启动: 36秒

定位精度

位置: 10米圆周誤差(CEP)

速度: 0.1米/秒

时间:1 微秒

使用范畴

海拔高度: 小于18000 米

速度: 小于 515米/秒

输出格局

TTL

数据输出(nmea0183)

GPGGA, GPGSA, GPGSV, GPRMC, GPVTG,GPGLL可选.

地球坐标系

WGS84

传输速度

4800,9600,38400可选

天线连接编制

外接天线

备用电池

模块连接编制

贴片 30pin脚 (两边各15pin脚)

m-89模块

m-89

gps天线

采用环保材料,高机能线材,领受活络度极高,带磁铁,能够吸在车顶,线长3米! 售价:25元/条

gps天线测试演讲

1、概述

  GPS领受天线的传染感动,是将卫星来的无线电信号的电磁波能量变换成领受机电子器件可摄取使用的电源。我司的GPS天线是由陶瓷天线体和有源放大器构成。采用塑胶外壳封装,具有防水防潮的特点,该产物体积玲珑,天线底部装有磁铁,安装使用便当。

2、产物外观

外型尺寸Size 48*37*15 固定编制Mounting 磁性Magnetic
分量Weight <110(克)gram 连接器型号Connector 直头
外壳颜色Color 黑Black 电缆Cable RG174
3meters

3、工作前提

  温度Temperature:-40℃~+85℃
  湿度Humidity:95﹪~100﹪

4、储藏前提

  温度Temperature:-40℃~+85℃
  湿度Humidity: 95﹪~100﹪

5、天线特征

NO

名目(Item)

特征(Specifications)

PostEnvironmental Tolerance(境试验后答应附加误差)

1

领受频次范畴(MHz)
Range of Receiving Frequency

1575.42±1.1

±2.5MHz

2

核心频次(30*30m㎡蔽时)
Center Frequency(MHz)
(with 30mmSpuareGND plane)

1575.42

±3.0

3

带宽Band Width(MHz)
(Retum Loss≤-10dB)

≥10

±0.5MHz

4

驻波比V.S.W.R(in Center Frequency)

≤1.5

±0.5

5

增益Gain (Zenith)(dBi typ)
(with 70mmSquare GND plane)

4.5

±0.5

6

轴比Axial Ratio
(with 70mm Square GND plan)

3.0dB

±0.2

7

偏振编制Polarization

右旋圆极化

Right-Handed Circular

----

8

特征阻抗Impedance(Ω)

50

----

9

频次温度系数(ppm/℃)
Frequency Temperature Coefficient

0±10

----

 

核心频次Center Frequency 1575.42MHz±3 MHz
放大器增益LNA Gain(Without cable) 28dB Typica(可选)
噪声系数Noise Figure 1.5dB
输出电压驻波比V.S.W.R <2.0
直流电压DC Voltage 3V、5V、 3V to 5V或其他
直流电流DC current 5mA、10mAMax
分量Weight <110(克)gram
外型尺寸Size 48x37x15mm
电缆Cable RG1745meters或3meters
连接器型号Connector MCX
固定编制Mounting 磁性Magnetic base/粘贴stiking
外壳颜色Housing 黑Black
工作温度Working Temp -40℃~+85℃
振动Vibration Sine sweep 1g(0-p)10~50~10Hz each axis
湿度Humidity Humidity95%~100%RH
防水Weatherproof 100%Waterproof

 

gps天线

gps天线

gps天线

gps天线